Location: *
(51.2167°N, 10.0667°E)
Time: 11:25:26
(UTC+00:00)

FALCON 9 DEB - Pass Details

Date: 12 December 2019
Orbit: 431 x 443 km, 53.0° (Epoch: 27 January)

Event Time Altitude Azimuth Distance (km) Brightness Sun altitude
Rises 17:00:15 0° 232° (SW) 2,426 8.3 -15.8°
Reaches altitude 10° 17:02:25 10° 226° (SW) 1,557 6.9 -16.1°
Maximum altitude 17:05:47 48° 152° (SSE) 589 3.6 -16.6°
Enters shadow 17:06:39 38° 108° (ESE) 695 3.7 -16.8°
